NOZ6LK ENGM-LFMN

Flight info

Callsign NOZ6LK
Flight time 2h 56m
Altitude 36000
Route VIPPA DCT NIROD DCT LUTIR DCT MALYK DCT ISMEF DCT MISGO DCT LIMGO/N0442F370 DCT SUTAL DCT GTQ DCT POGOL DCT LASAT DCT MOROK DCT GILIR DCT GEVEA DCT KOGAS DCT MEDAM/N0405F290 DCT VEVAR
Aircraft B738/M-SDE2E3GHIJ1LRWXY/LB1

Departure

Time 2026-05-05 14:17
Airport Oslo-Gardermoen International Airport (ENGM)

Arrival

Time 2026-05-05 17:13
Airport Nice-Côte d'Azur Airport (LFMN)
Time Latitude Longitude Altitude Speed Heading
2026-05-05 13:45 60.19670 11.09974 684 ft 0 kts 106°
2026-05-05 14:05 60.19677 11.09930 680 ft 4 kts 106°
2026-05-05 14:06 60.19683 11.09886 679 ft 1 kts 106°
2026-05-05 14:06 60.19683 11.09885 679 ft 0 kts 106°
2026-05-05 14:09 60.19683 11.09887 679 ft 1 kts 103°
2026-05-05 14:09 60.19688 11.09894 680 ft 1 kts 30°
2026-05-05 14:10 60.19693 11.09878 682 ft 2 kts 287°
2026-05-05 14:10 60.19699 11.09819 682 ft 6 kts 281°
2026-05-05 14:10 60.19713 11.09700 679 ft 12 kts 285°
2026-05-05 14:10 60.19739 11.09521 680 ft 15 kts 286°
2026-05-05 14:11 60.19770 11.09306 680 ft 17 kts 286°
2026-05-05 14:11 60.19805 11.09060 682 ft 19 kts 286°
2026-05-05 14:11 60.19843 11.08791 677 ft 13 kts 280°
2026-05-05 14:11 60.19784 11.08677 678 ft 14 kts 196°
2026-05-05 14:12 60.19678 11.08614 677 ft 18 kts 196°
2026-05-05 14:12 60.19550 11.08541 677 ft 21 kts 196°
2026-05-05 14:12 60.19402 11.08457 675 ft 24 kts 195°
2026-05-05 14:12 60.19263 11.08375 673 ft 14 kts 201°
2026-05-05 14:13 60.19240 11.08186 672 ft 16 kts 286°
2026-05-05 14:13 60.19254 11.08088 671 ft 0 kts 285°
2026-05-05 14:14 60.19254 11.08087 671 ft 0 kts 285°
2026-05-05 14:14 60.19257 11.08067 671 ft 4 kts 286°
2026-05-05 14:14 60.19270 11.07976 671 ft 9 kts 286°
2026-05-05 14:15 60.19298 11.07852 669 ft 10 kts 326°
2026-05-05 14:15 60.19324 11.07851 671 ft 0 kts 15°
2026-05-05 14:16 60.19442 11.07918 672 ft 51 kts 15°
2026-05-05 14:16 60.20027 11.08257 675 ft 120 kts 15°
2026-05-05 14:17 60.20994 11.08833 758 ft 166 kts 14°
2026-05-05 14:17 60.22092 11.09499 1512 ft 167 kts 13°
2026-05-05 14:17 60.23277 11.10155 2166 ft 186 kts
2026-05-05 14:17 60.24623 11.10854 2514 ft 213 kts
2026-05-05 14:18 60.26135 11.11370 2900 ft 225 kts 354°
2026-05-05 14:18 60.27721 11.10938 3380 ft 242 kts 346°
2026-05-05 14:18 60.29433 11.10309 4102 ft 251 kts 342°
2026-05-05 14:18 60.30907 11.08636 5131 ft 244 kts 310°
2026-05-05 14:19 60.31708 11.05657 6031 ft 247 kts 284°
2026-05-05 14:19 60.31801 11.02158 6662 ft 255 kts 263°
2026-05-05 14:19 60.31161 10.98901 6997 ft 253 kts 243°
2026-05-05 14:19 60.30590 10.95538 7006 ft 256 kts 270°
2026-05-05 14:20 60.30902 10.92005 7028 ft 256 kts 287°
2026-05-05 14:20 60.31395 10.88536 7370 ft 258 kts 285°
2026-05-05 14:20 60.31849 10.85019 8252 ft 259 kts 282°
2026-05-05 14:20 60.31781 10.81404 9148 ft 264 kts 252°
2026-05-05 14:21 60.30831 10.78244 10058 ft 269 kts 231°
2026-05-05 14:21 60.29343 10.75800 10463 ft 293 kts 217°
2026-05-05 14:21 60.27552 10.73555 10669 ft 317 kts 214°
2026-05-05 14:21 60.25602 10.71202 11036 ft 335 kts 214°
2026-05-05 14:22 60.23588 10.68764 11763 ft 339 kts 215°
2026-05-05 14:22 60.21570 10.66282 12581 ft 342 kts 216°
2026-05-05 14:22 60.19528 10.63744 13345 ft 347 kts 216°
2026-05-05 14:22 60.17469 10.61179 14091 ft 350 kts 216°
2026-05-05 14:23 60.15225 10.59241 14909 ft 359 kts 197°
2026-05-05 14:23 60.12753 10.58375 15714 ft 361 kts 195°
2026-05-05 14:23 60.10270 10.57566 16455 ft 363 kts 196°
2026-05-05 14:23 60.07769 10.56743 17157 ft 366 kts 196°
2026-05-05 14:24 60.05244 10.55899 17889 ft 368 kts 197°
2026-05-05 14:24 60.02719 10.55043 18556 ft 367 kts 199°
2026-05-05 14:24 60.00209 10.54185 19259 ft 366 kts 199°
2026-05-05 14:24 59.97689 10.53315 19866 ft 369 kts 200°
2026-05-05 14:25 59.95157 10.52435 20433 ft 371 kts 201°
2026-05-05 14:25 59.92602 10.51548 21054 ft 373 kts 202°
2026-05-05 14:25 59.90040 10.50660 21676 ft 375 kts 202°
2026-05-05 14:25 59.88303 10.50059 22067 ft 376 kts 203°
2026-05-05 14:26 59.85718 10.49166 22624 ft 378 kts 203°
2026-05-05 14:26 59.83154 10.48282 23194 ft 380 kts 204°
2026-05-05 14:26 59.80512 10.47373 23691 ft 381 kts 204°
2026-05-05 14:26 59.77887 10.46471 24071 ft 384 kts 204°
2026-05-05 14:27 59.75239 10.45560 24350 ft 388 kts 203°
2026-05-05 14:27 59.72559 10.44638 24618 ft 395 kts 202°
2026-05-05 14:27 59.69821 10.43811 24944 ft 409 kts 192°
2026-05-05 14:27 59.66932 10.44265 25273 ft 408 kts 195°
2026-05-05 14:28 59.64287 10.43144 25780 ft 381 kts 212°
2026-05-05 14:28 59.61771 10.41376 26105 ft 390 kts 208°
2026-05-05 14:28 59.59093 10.40037 26364 ft 402 kts 204°
2026-05-05 14:28 59.56325 10.38982 26746 ft 407 kts 202°
2026-05-05 14:29 59.53531 10.38041 27148 ft 409 kts 201°
2026-05-05 14:29 59.50712 10.37131 27510 ft 411 kts 201°
2026-05-05 14:29 59.47879 10.36215 27842 ft 414 kts 201°
2026-05-05 14:29 59.45034 10.35284 28078 ft 416 kts 200°
2026-05-05 14:30 59.42168 10.34336 28417 ft 418 kts 200°
2026-05-05 14:30 59.39296 10.33380 28771 ft 420 kts 200°
2026-05-05 14:30 59.36413 10.32416 29104 ft 422 kts 200°
2026-05-05 14:30 59.33514 10.31446 29415 ft 424 kts 200°
2026-05-05 14:31 59.30601 10.30472 29726 ft 426 kts 200°
2026-05-05 14:31 59.27681 10.29500 30060 ft 426 kts 200°
2026-05-05 14:31 59.24766 10.28534 30449 ft 424 kts 200°
2026-05-05 14:31 59.21864 10.27572 30803 ft 423 kts 199°
2026-05-05 14:32 59.18956 10.26606 31011 ft 424 kts 199°
2026-05-05 14:32 59.16048 10.25680 31352 ft 425 kts 197°
2026-05-05 14:32 59.13084 10.25127 31693 ft 429 kts 193°
2026-05-05 14:32 59.10099 10.24798 32005 ft 431 kts 192°
2026-05-05 14:33 59.07108 10.24510 32307 ft 431 kts 192°
2026-05-05 14:33 59.04122 10.24190 32634 ft 430 kts 193°
2026-05-05 14:33 59.01142 10.23824 33000 ft 427 kts 193°
2026-05-05 14:33 58.98225 10.23437 33362 ft 425 kts 193°
2026-05-05 14:34 58.95272 10.23025 33627 ft 425 kts 195°
2026-05-05 14:34 58.92450 10.21818 33796 ft 408 kts 210°
2026-05-05 14:34 58.89825 10.19783 34055 ft 406 kts 210°
2026-05-05 14:34 58.87195 10.17804 34308 ft 406 kts 209°
2026-05-05 14:35 58.84548 10.15849 34435 ft 409 kts 208°
2026-05-05 14:35 58.81832 10.13867 34542 ft 413 kts 208°
2026-05-05 14:35 58.79144 10.11924 34764 ft 412 kts 208°
2026-05-05 14:35 58.76494 10.10020 35000 ft 412 kts 208°
2026-05-05 14:36 58.73806 10.08092 35175 ft 413 kts 208°
2026-05-05 14:36 58.71107 10.06157 35337 ft 415 kts 207°
2026-05-05 14:36 58.68396 10.04217 35536 ft 415 kts 207°
2026-05-05 14:36 58.65689 10.02282 35728 ft 416 kts 207°
2026-05-05 14:37 58.62977 10.00347 35851 ft 416 kts 207°
2026-05-05 14:37 58.60267 9.98415 36066 ft 416 kts 207°
2026-05-05 14:37 58.57544 9.96478 36249 ft 417 kts 207°
2026-05-05 14:37 58.54824 9.94546 36397 ft 418 kts 207°
2026-05-05 14:38 58.52093 9.92608 36573 ft 419 kts 207°
2026-05-05 14:38 58.49365 9.90677 36755 ft 419 kts 207°
2026-05-05 14:38 58.46625 9.88740 36915 ft 420 kts 206°
2026-05-05 14:38 58.43888 9.86808 37064 ft 420 kts 206°
2026-05-05 14:39 58.41146 9.84876 37244 ft 421 kts 206°
2026-05-05 14:39 58.38396 9.82942 37411 ft 421 kts 206°
2026-05-05 14:39 58.35645 9.81010 37558 ft 422 kts 206°
2026-05-05 14:39 58.32889 9.79078 37715 ft 422 kts 206°
2026-05-05 14:40 58.30127 9.77146 37878 ft 422 kts 206°
2026-05-05 14:40 58.27365 9.75215 37950 ft 424 kts 206°
2026-05-05 14:40 58.21809 9.71341 37958 ft 425 kts 206°
2026-05-05 14:41 58.16269 9.67495 37952 ft 422 kts 206°
2026-05-05 14:41 58.10765 9.63682 37912 ft 420 kts 206°
2026-05-05 14:42 58.05200 9.60313 37959 ft 422 kts 199°
2026-05-05 14:42 57.99461 9.57879 37959 ft 423 kts 198°
2026-05-05 14:43 57.93701 9.55522 37961 ft 424 kts 198°
2026-05-05 14:43 57.87939 9.53111 37964 ft 425 kts 199°
2026-05-05 14:44 57.82163 9.50660 37946 ft 426 kts 199°
2026-05-05 14:44 57.76368 9.48194 37959 ft 428 kts 199°
2026-05-05 14:45 57.70548 9.45725 37965 ft 429 kts 199°
2026-05-05 14:45 57.64710 9.43256 37963 ft 431 kts 199°
2026-05-05 14:46 57.58883 9.40801 37965 ft 432 kts 199°
2026-05-05 14:46 57.53010 9.38336 37965 ft 432 kts 198°
2026-05-05 14:47 57.47141 9.35881 37961 ft 432 kts 198°
2026-05-05 14:47 57.41278 9.33436 37966 ft 432 kts 198°
2026-05-05 14:48 57.35447 9.31012 37963 ft 432 kts 198°
2026-05-05 14:48 57.29580 9.28581 37942 ft 431 kts 198°
2026-05-05 14:49 57.23732 9.26166 37953 ft 430 kts 198°
2026-05-05 14:49 57.17892 9.23762 37962 ft 429 kts 198°
2026-05-05 14:50 57.12070 9.21373 37965 ft 428 kts 198°
2026-05-05 14:50 57.06252 9.18992 37964 ft 428 kts 198°
2026-05-05 14:51 57.00450 9.16627 37966 ft 426 kts 198°
2026-05-05 14:51 56.94661 9.14274 37968 ft 425 kts 198°
2026-05-05 14:52 56.88879 9.11931 37961 ft 425 kts 198°
2026-05-05 14:52 56.83143 9.09614 37961 ft 425 kts 198°
2026-05-05 14:53 56.77364 9.07287 37931 ft 425 kts 197°
2026-05-05 14:53 56.71586 9.04968 37950 ft 425 kts 197°
2026-05-05 14:54 56.65808 9.02656 37958 ft 425 kts 197°
2026-05-05 14:54 56.60030 9.00350 37953 ft 426 kts 197°
2026-05-05 14:55 56.54232 8.98045 37950 ft 427 kts 197°
2026-05-05 14:55 56.48439 8.95749 37952 ft 426 kts 197°
2026-05-05 14:56 56.42637 8.93458 37948 ft 426 kts 197°
2026-05-05 14:56 56.36837 8.91173 37943 ft 427 kts 197°
2026-05-05 14:57 56.31035 8.88895 37940 ft 427 kts 197°
2026-05-05 14:57 56.25270 8.86638 37917 ft 427 kts 197°
2026-05-05 14:58 56.19472 8.84376 37942 ft 426 kts 197°
2026-05-05 14:58 56.13679 8.82123 37950 ft 426 kts 197°
2026-05-05 14:59 56.07876 8.79872 37948 ft 426 kts 197°
2026-05-05 14:59 56.02066 8.77625 37950 ft 427 kts 197°
2026-05-05 15:00 55.97247 8.75767 37929 ft 427 kts 197°
2026-05-05 15:00 55.90457 8.73157 37945 ft 427 kts 197°
2026-05-05 15:01 55.84649 8.70932 37950 ft 427 kts 197°
2026-05-05 15:01 55.78865 8.68723 37952 ft 428 kts 197°
2026-05-05 15:02 55.73042 8.66506 37949 ft 429 kts 197°
2026-05-05 15:02 55.67202 8.64289 37950 ft 429 kts 197°
2026-05-05 15:03 55.61350 8.62074 37953 ft 430 kts 197°
2026-05-05 15:03 55.55499 8.59867 37957 ft 430 kts 197°
2026-05-05 15:04 55.49646 8.57666 37968 ft 430 kts 196°
2026-05-05 15:04 55.43798 8.55473 37964 ft 429 kts 196°
2026-05-05 15:05 55.35072 8.52213 37968 ft 429 kts 196°
2026-05-05 15:06 55.29233 8.50039 37956 ft 429 kts 196°
2026-05-05 15:06 55.23391 8.47871 37962 ft 428 kts 196°
2026-05-05 15:07 55.17566 8.45716 37937 ft 428 kts 195°
2026-05-05 15:07 55.11747 8.43568 37964 ft 427 kts 195°
2026-05-05 15:08 55.05924 8.41427 37965 ft 427 kts 195°
2026-05-05 15:08 55.00092 8.39363 37967 ft 428 kts 195°
2026-05-05 15:09 54.94261 8.37340 37965 ft 427 kts 195°
2026-05-05 15:09 54.88422 8.35315 37965 ft 427 kts 195°
2026-05-05 15:10 54.82586 8.33289 37956 ft 428 kts 195°
2026-05-05 15:10 54.76784 8.31278 37953 ft 428 kts 195°
2026-05-05 15:11 54.70939 8.29258 37935 ft 428 kts 194°
2026-05-05 15:11 54.65085 8.27241 37949 ft 428 kts 194°
2026-05-05 15:12 54.59238 8.25232 37950 ft 428 kts 194°
2026-05-05 15:12 54.53386 8.23227 37951 ft 429 kts 194°
2026-05-05 15:13 54.47534 8.21229 37954 ft 429 kts 194°
2026-05-05 15:13 54.42670 8.19572 37945 ft 428 kts 194°
2026-05-05 15:14 54.36828 8.17588 37944 ft 428 kts 194°
2026-05-05 15:14 54.30988 8.15610 37945 ft 427 kts 194°
2026-05-05 15:15 54.25161 8.13641 37942 ft 427 kts 194°
2026-05-05 15:15 54.19328 8.11677 37935 ft 426 kts 194°
2026-05-05 15:16 54.13513 8.09724 37940 ft 425 kts 194°
2026-05-05 15:16 54.07713 8.07782 37942 ft 425 kts 194°
2026-05-05 15:17 54.01952 8.05858 37937 ft 424 kts 194°
2026-05-05 15:17 53.96169 8.03933 37924 ft 423 kts 194°
2026-05-05 15:18 53.90398 8.02017 37928 ft 422 kts 194°
2026-05-05 15:18 53.84646 8.00112 37928 ft 420 kts 194°
2026-05-05 15:19 53.78914 7.98220 37934 ft 419 kts 194°
2026-05-05 15:19 53.73187 7.96334 37934 ft 418 kts 194°
2026-05-05 15:20 53.67482 7.94460 37935 ft 417 kts 194°
2026-05-05 15:20 53.61800 7.92600 37931 ft 416 kts 194°
2026-05-05 15:21 53.56123 7.90745 37939 ft 415 kts 194°
2026-05-05 15:21 53.50492 7.88912 37933 ft 414 kts 194°
2026-05-05 15:22 53.44840 7.87075 37926 ft 413 kts 194°
2026-05-05 15:22 53.39187 7.85244 37918 ft 414 kts 194°
2026-05-05 15:23 53.33534 7.83417 37920 ft 414 kts 194°
2026-05-05 15:23 53.27867 7.81591 37913 ft 415 kts 194°
2026-05-05 15:24 53.22184 7.79765 37918 ft 416 kts 194°
2026-05-05 15:24 53.16486 7.77938 37910 ft 418 kts 194°
2026-05-05 15:25 53.10776 7.76113 37908 ft 418 kts 194°
2026-05-05 15:25 53.05052 7.74288 37909 ft 419 kts 194°
2026-05-05 15:26 52.99331 7.72420 37880 ft 419 kts 197°
2026-05-05 15:26 52.93930 7.69011 37904 ft 415 kts 206°
2026-05-05 15:27 52.88624 7.65216 37907 ft 416 kts 206°
2026-05-05 15:27 52.83298 7.61470 37901 ft 417 kts 205°
2026-05-05 15:28 52.77946 7.57745 37896 ft 417 kts 205°
2026-05-05 15:28 52.72625 7.54053 37898 ft 418 kts 205°
2026-05-05 15:29 52.67221 7.50315 37895 ft 418 kts 205°
2026-05-05 15:29 52.61869 7.46718 37904 ft 419 kts 201°
2026-05-05 15:30 52.56293 7.43858 37900 ft 420 kts 199°
2026-05-05 15:30 52.50683 7.41161 37899 ft 420 kts 199°
2026-05-05 15:31 52.45084 7.38430 37898 ft 420 kts 199°
2026-05-05 15:31 52.39483 7.35661 37890 ft 420 kts 199°
2026-05-05 15:32 52.33895 7.32889 37883 ft 419 kts 199°
2026-05-05 15:32 52.28317 7.30127 37887 ft 418 kts 199°
2026-05-05 15:33 52.22765 7.27387 37877 ft 416 kts 199°
2026-05-05 15:33 52.17227 7.24660 37874 ft 415 kts 199°
2026-05-05 15:34 52.11713 7.21953 37885 ft 413 kts 199°
2026-05-05 15:34 52.06208 7.19257 37886 ft 413 kts 199°
2026-05-05 15:35 52.00691 7.16561 37861 ft 414 kts 199°
2026-05-05 15:35 51.95210 7.13891 37870 ft 413 kts 199°
2026-05-05 15:36 51.89712 7.11220 37873 ft 412 kts 199°
2026-05-05 15:36 51.84208 7.08551 37877 ft 412 kts 199°
2026-05-05 15:37 51.78713 7.05895 37868 ft 411 kts 198°
2026-05-05 15:37 51.73232 7.03252 37870 ft 411 kts 198°
2026-05-05 15:38 51.67751 7.00615 37865 ft 411 kts 198°
2026-05-05 15:38 51.62300 6.97999 37868 ft 411 kts 198°
2026-05-05 15:39 51.56817 6.95374 37855 ft 411 kts 198°
2026-05-05 15:39 51.51337 6.92757 37864 ft 411 kts 198°
2026-05-05 15:40 51.45850 6.90143 37860 ft 411 kts 198°
2026-05-05 15:40 51.40354 6.87547 37854 ft 412 kts 196°
2026-05-05 15:41 51.34762 6.85485 37860 ft 413 kts 193°
2026-05-05 15:41 51.29137 6.83589 37857 ft 413 kts 193°
2026-05-05 15:42 51.23505 6.81677 37860 ft 414 kts 193°
2026-05-05 15:42 51.17875 6.79744 37858 ft 414 kts 193°
2026-05-05 15:43 51.12243 6.77801 37841 ft 414 kts 193°
2026-05-05 15:43 51.06606 6.75860 37849 ft 414 kts 193°
2026-05-05 15:44 51.01008 6.73937 37855 ft 414 kts 193°
2026-05-05 15:44 50.95377 6.72007 37854 ft 414 kts 193°
2026-05-05 15:45 50.89744 6.70081 37856 ft 414 kts 193°
2026-05-05 15:45 50.84104 6.68158 37859 ft 414 kts 193°
2026-05-05 15:46 50.78475 6.66244 37856 ft 414 kts 192°
2026-05-05 15:46 50.72854 6.64336 37854 ft 413 kts 192°
2026-05-05 15:47 50.67224 6.62431 37866 ft 415 kts 192°
2026-05-05 15:47 50.61555 6.60517 37830 ft 418 kts 192°
2026-05-05 15:48 50.55851 6.58596 37825 ft 419 kts 192°
2026-05-05 15:48 50.50189 6.56693 37815 ft 417 kts 192°
2026-05-05 15:49 50.44520 6.54793 37804 ft 416 kts 192°
2026-05-05 15:49 50.38857 6.52900 37810 ft 417 kts 192°
2026-05-05 15:50 50.33174 6.51005 37814 ft 418 kts 192°
2026-05-05 15:50 50.27478 6.49110 37800 ft 418 kts 192°
2026-05-05 15:51 50.21785 6.47220 37795 ft 418 kts 192°
2026-05-05 15:51 50.16094 6.45336 37795 ft 418 kts 192°
2026-05-05 15:52 50.10443 6.43470 37805 ft 418 kts 192°
2026-05-05 15:52 50.04755 6.41596 37796 ft 418 kts 192°
2026-05-05 15:53 49.99072 6.39728 37792 ft 417 kts 192°
2026-05-05 15:53 49.93384 6.37863 37803 ft 418 kts 192°
2026-05-05 15:54 49.87691 6.36001 37808 ft 419 kts 192°
2026-05-05 15:54 49.81972 6.34134 37829 ft 420 kts 192°
2026-05-05 15:55 49.76246 6.32270 37819 ft 421 kts 192°
2026-05-05 15:55 49.70500 6.30403 37834 ft 422 kts 192°
2026-05-05 15:56 49.64685 6.29257 37839 ft 424 kts 177°
2026-05-05 15:56 49.58919 6.31125 37824 ft 428 kts 159°
2026-05-05 15:57 49.53441 6.34793 37825 ft 429 kts 158°
2026-05-05 15:57 49.47981 6.38384 37823 ft 429 kts 159°
2026-05-05 15:58 49.42494 6.42001 37814 ft 429 kts 158°
2026-05-05 15:58 49.37036 6.45729 37828 ft 429 kts 158°
2026-05-05 15:59 49.31577 6.49449 37833 ft 430 kts 158°
2026-05-05 15:59 49.26094 6.53157 37821 ft 430 kts 158°
2026-05-05 16:00 49.20622 6.56847 37821 ft 429 kts 158°
2026-05-05 16:00 49.15159 6.60519 37823 ft 428 kts 158°
2026-05-05 16:01 49.09708 6.64175 37810 ft 427 kts 159°
2026-05-05 16:01 49.04280 6.67808 37819 ft 426 kts 159°
2026-05-05 16:02 48.99707 6.70517 37816 ft 422 kts 168°
2026-05-05 16:02 48.93928 6.71545 37814 ft 417 kts 183°
2026-05-05 16:03 48.88124 6.71259 37817 ft 417 kts 183°
2026-05-05 16:03 48.82329 6.70972 37816 ft 417 kts 183°
2026-05-05 16:04 48.76520 6.70725 37819 ft 417 kts 182°
2026-05-05 16:04 48.70707 6.70496 37824 ft 418 kts 182°
2026-05-05 16:05 48.64877 6.70269 37817 ft 419 kts 182°
2026-05-05 16:05 48.59083 6.70044 37819 ft 419 kts 182°
2026-05-05 16:06 48.53239 6.69817 37818 ft 420 kts 182°
2026-05-05 16:06 48.47393 6.69590 37826 ft 420 kts 182°
2026-05-05 16:07 48.41545 6.69364 37827 ft 420 kts 182°
2026-05-05 16:07 48.35720 6.69141 37827 ft 421 kts 182°
2026-05-05 16:08 48.29824 6.68921 37822 ft 421 kts 182°
2026-05-05 16:08 48.24001 6.68703 37829 ft 420 kts 182°
2026-05-05 16:09 48.18158 6.68484 37840 ft 420 kts 182°
2026-05-05 16:09 48.12330 6.68267 37841 ft 419 kts 182°
2026-05-05 16:10 48.06496 6.68050 37836 ft 418 kts 182°
2026-05-05 16:10 48.00675 6.67834 37841 ft 418 kts 182°
2026-05-05 16:11 47.94911 6.67621 37848 ft 417 kts 182°
2026-05-05 16:12 47.83306 6.67193 37860 ft 417 kts 182°
2026-05-05 16:13 47.68757 6.66658 37855 ft 419 kts 182°
2026-05-05 16:13 47.62917 6.66444 37867 ft 421 kts 183°
2026-05-05 16:14 47.51194 6.66017 37861 ft 423 kts 183°
2026-05-05 16:15 47.39606 6.64168 37861 ft 419 kts 204°
2026-05-05 16:16 47.34732 6.59567 37893 ft 417 kts 220°
2026-05-05 16:16 47.30353 6.53963 37883 ft 417 kts 220°
2026-05-05 16:17 47.23763 6.45623 37874 ft 416 kts 220°
2026-05-05 16:18 47.18865 6.41310 37901 ft 415 kts 193°
2026-05-05 16:18 47.15992 6.40833 37860 ft 419 kts 181°
2026-05-05 16:19 47.07332 6.43024 37892 ft 422 kts 171°
2026-05-05 16:19 46.98726 6.45658 37865 ft 424 kts 171°
2026-05-05 16:20 46.87097 6.49049 37887 ft 426 kts 172°
2026-05-05 16:22 46.72502 6.53241 37875 ft 428 kts 172°
2026-05-05 16:23 46.60890 6.56563 37890 ft 426 kts 172°
2026-05-05 16:23 46.52174 6.59046 37893 ft 425 kts 172°
2026-05-05 16:24 46.46380 6.60692 37881 ft 424 kts 172°
2026-05-05 16:25 46.37719 6.63146 37893 ft 422 kts 172°
2026-05-05 16:25 46.29101 6.65580 37899 ft 419 kts 173°
2026-05-05 16:26 46.17642 6.68803 37898 ft 421 kts 173°
2026-05-05 16:27 46.11895 6.70416 37917 ft 420 kts 173°
2026-05-05 16:27 46.06135 6.72026 37899 ft 423 kts 173°
2026-05-05 16:28 46.00358 6.73639 37904 ft 424 kts 173°
2026-05-05 16:28 45.94579 6.75251 37911 ft 423 kts 173°
2026-05-05 16:29 45.88800 6.76859 37893 ft 422 kts 174°
2026-05-05 16:29 45.83049 6.78456 37921 ft 420 kts 173°
2026-05-05 16:30 45.77306 6.80046 37918 ft 420 kts 173°
2026-05-05 16:30 45.71569 6.81631 37907 ft 420 kts 174°
2026-05-05 16:31 45.65832 6.83212 37909 ft 420 kts 174°
2026-05-05 16:31 45.60081 6.84795 37918 ft 420 kts 174°
2026-05-05 16:32 45.54382 6.86362 37938 ft 414 kts 174°
2026-05-05 16:32 45.48688 6.87922 37920 ft 419 kts 174°
2026-05-05 16:33 45.43008 6.89474 37949 ft 420 kts 174°
2026-05-05 16:33 45.37267 6.91041 37920 ft 420 kts 174°
2026-05-05 16:34 45.31526 6.92606 37940 ft 419 kts 174°
2026-05-05 16:34 45.25797 6.94130 37927 ft 418 kts 177°
2026-05-05 16:35 45.22894 6.94671 37486 ft 422 kts 179°
2026-05-05 16:35 45.19990 6.95121 37047 ft 418 kts 179°
2026-05-05 16:35 45.17114 6.95554 36651 ft 413 kts 180°
2026-05-05 16:35 45.14270 6.95975 36235 ft 409 kts 180°
2026-05-05 16:36 45.11455 6.96395 35861 ft 403 kts 180°
2026-05-05 16:36 45.08684 6.96818 35446 ft 399 kts 180°
2026-05-05 16:36 45.05936 6.97243 35053 ft 395 kts 180°
2026-05-05 16:36 45.03213 6.97667 34663 ft 391 kts 180°
2026-05-05 16:37 45.00524 6.98085 34255 ft 387 kts 181°
2026-05-05 16:37 44.97858 6.98503 33882 ft 384 kts 181°
2026-05-05 16:37 44.95214 6.98918 33426 ft 379 kts 181°
2026-05-05 16:37 44.92612 6.99337 33011 ft 374 kts 181°
2026-05-05 16:38 44.90052 6.99739 32674 ft 366 kts 181°
2026-05-05 16:38 44.87540 7.00133 32335 ft 359 kts 182°
2026-05-05 16:38 44.85066 7.00517 31907 ft 358 kts 182°
2026-05-05 16:38 44.82606 7.00899 31569 ft 354 kts 182°
2026-05-05 16:39 44.80166 7.01278 31217 ft 351 kts 181°
2026-05-05 16:39 44.77749 7.01752 30900 ft 349 kts 180°
2026-05-05 16:39 44.75363 7.02318 30554 ft 347 kts 179°
2026-05-05 16:39 44.72983 7.02907 30184 ft 346 kts 179°
2026-05-05 16:40 44.70624 7.03491 29831 ft 344 kts 179°
2026-05-05 16:40 44.68273 7.04068 29398 ft 341 kts 179°
2026-05-05 16:40 44.65980 7.04627 29028 ft 337 kts 179°
2026-05-05 16:40 44.63645 7.05191 28665 ft 334 kts 179°
2026-05-05 16:41 44.61396 7.05729 28303 ft 331 kts 179°
2026-05-05 16:41 44.59131 7.06264 27920 ft 329 kts 179°
2026-05-05 16:41 44.56892 7.06793 27599 ft 324 kts 179°
2026-05-05 16:41 44.54672 7.07316 27255 ft 323 kts 179°
2026-05-05 16:42 44.52465 7.07832 26875 ft 320 kts 178°
2026-05-05 16:42 44.50289 7.08348 26522 ft 315 kts 178°
2026-05-05 16:42 44.48142 7.08857 26232 ft 312 kts 178°
2026-05-05 16:42 44.46002 7.09360 25872 ft 311 kts 178°
2026-05-05 16:43 44.43849 7.09868 25565 ft 320 kts 178°
2026-05-05 16:43 44.41599 7.10383 25207 ft 334 kts 178°
2026-05-05 16:43 44.39304 7.10917 24814 ft 334 kts 178°
2026-05-05 16:43 44.37020 7.11457 24449 ft 332 kts 177°
2026-05-05 16:44 44.34748 7.12029 24084 ft 331 kts 176°
2026-05-05 16:44 44.32499 7.12566 23747 ft 326 kts 176°
2026-05-05 16:44 44.30260 7.13072 23363 ft 327 kts 177°
2026-05-05 16:44 44.28013 7.13583 22958 ft 327 kts 177°
2026-05-05 16:45 44.25775 7.14102 22593 ft 325 kts 177°
2026-05-05 16:45 44.23555 7.14620 22211 ft 323 kts 177°
2026-05-05 16:45 44.21345 7.15181 21900 ft 321 kts 172°
2026-05-05 16:45 44.19233 7.16217 21701 ft 322 kts 165°
2026-05-05 16:46 44.17179 7.17445 21483 ft 321 kts 163°
2026-05-05 16:46 44.15147 7.18693 21274 ft 316 kts 164°
2026-05-05 16:46 44.13143 7.19917 21081 ft 314 kts 164°
2026-05-05 16:46 44.11131 7.21127 20888 ft 317 kts 164°
2026-05-05 16:47 44.09085 7.22341 20705 ft 321 kts 164°
2026-05-05 16:47 44.07026 7.23558 20499 ft 321 kts 164°
2026-05-05 16:47 44.04977 7.24766 20394 ft 316 kts 164°
2026-05-05 16:47 44.02945 7.25957 20046 ft 321 kts 164°
2026-05-05 16:48 44.00896 7.27178 19718 ft 319 kts 163°
2026-05-05 16:48 43.98860 7.28369 19471 ft 314 kts 164°
2026-05-05 16:48 43.96848 7.29534 19218 ft 312 kts 164°
2026-05-05 16:48 43.94876 7.30677 19023 ft 313 kts 163°
2026-05-05 16:49 43.92861 7.31844 18792 ft 314 kts 163°
2026-05-05 16:49 43.90852 7.33013 18566 ft 313 kts 163°
2026-05-05 16:49 43.88838 7.34187 18381 ft 314 kts 163°
2026-05-05 16:49 43.86817 7.35358 18106 ft 316 kts 163°
2026-05-05 16:50 43.84794 7.36535 17877 ft 315 kts 163°
2026-05-05 16:50 43.82807 7.37827 17631 ft 319 kts 153°
2026-05-05 16:50 43.81027 7.39709 17402 ft 323 kts 147°
2026-05-05 16:50 43.79867 7.41051 17254 ft 321 kts 146°
2026-05-05 16:51 43.78158 7.43031 17008 ft 319 kts 146°
2026-05-05 16:51 43.76486 7.44949 16792 ft 314 kts 147°
2026-05-05 16:51 43.74782 7.46880 16566 ft 311 kts 147°
2026-05-05 16:51 43.73130 7.48735 16351 ft 309 kts 147°
2026-05-05 16:52 43.71461 7.50598 16124 ft 307 kts 147°
2026-05-05 16:52 43.69797 7.52453 15928 ft 308 kts 147°
2026-05-05 16:52 43.68188 7.54461 15697 ft 319 kts 133°
2026-05-05 16:52 43.67155 7.57232 15491 ft 329 kts 116°
2026-05-05 16:53 43.66380 7.60210 15229 ft 329 kts 114°
2026-05-05 16:53 43.65639 7.63196 15006 ft 328 kts 114°
2026-05-05 16:53 43.64902 7.66171 14782 ft 327 kts 114°
2026-05-05 16:53 43.64161 7.69132 14547 ft 326 kts 114°
2026-05-05 16:54 43.63412 7.72092 14333 ft 326 kts 114°
2026-05-05 16:54 43.62662 7.75033 14103 ft 325 kts 114°
2026-05-05 16:54 43.61906 7.77978 13877 ft 325 kts 115°
2026-05-05 16:54 43.61148 7.80919 13638 ft 325 kts 114°
2026-05-05 16:55 43.60397 7.83829 13353 ft 325 kts 114°
2026-05-05 16:55 43.59637 7.86763 13100 ft 325 kts 114°
2026-05-05 16:55 43.58877 7.89700 12870 ft 324 kts 114°
2026-05-05 16:55 43.58121 7.92617 12632 ft 321 kts 114°
2026-05-05 16:56 43.57376 7.95489 12402 ft 316 kts 114°
2026-05-05 16:56 43.56638 7.98328 12190 ft 312 kts 114°
2026-05-05 16:56 43.55906 8.01138 11976 ft 310 kts 114°
2026-05-05 16:56 43.55155 8.03916 11766 ft 307 kts 120°
2026-05-05 16:57 43.53897 8.06192 11541 ft 293 kts 148°
2026-05-05 16:57 43.52140 8.07431 11358 ft 280 kts 171°
2026-05-05 16:57 43.50239 8.07631 11183 ft 273 kts 191°
2026-05-05 16:57 43.48406 8.06995 10991 ft 272 kts 207°
2026-05-05 16:58 43.46839 8.05586 10804 ft 268 kts 222°
2026-05-05 16:58 43.45436 8.03899 10617 ft 268 kts 224°
2026-05-05 16:58 43.44045 8.02193 10415 ft 267 kts 223°
2026-05-05 16:58 43.42657 8.00504 10219 ft 265 kts 223°
2026-05-05 16:59 43.41285 7.98845 10026 ft 260 kts 223°
2026-05-05 16:59 43.39937 7.97222 9837 ft 255 kts 223°
2026-05-05 16:59 43.38729 7.95487 9629 ft 250 kts 240°
2026-05-05 16:59 43.38196 7.93277 9477 ft 249 kts 262°
2026-05-05 17:00 43.38273 7.90893 9286 ft 253 kts 281°
2026-05-05 17:00 43.38950 7.88636 9122 ft 259 kts 294°
2026-05-05 17:00 43.39844 7.86471 8936 ft 262 kts 296°
2026-05-05 17:00 43.40765 7.84296 8744 ft 264 kts 296°
2026-05-05 17:01 43.41686 7.82103 8550 ft 265 kts 295°
2026-05-05 17:01 43.42373 7.79776 8377 ft 261 kts 283°
2026-05-05 17:01 43.42854 7.77388 8186 ft 258 kts 282°
2026-05-05 17:01 43.43305 7.75016 7989 ft 254 kts 282°
2026-05-05 17:02 43.43755 7.72679 7817 ft 252 kts 282°
2026-05-05 17:02 43.44213 7.70346 7640 ft 253 kts 282°
2026-05-05 17:02 43.44678 7.68019 7463 ft 252 kts 282°
2026-05-05 17:02 43.45146 7.65698 7292 ft 252 kts 283°
2026-05-05 17:03 43.45615 7.63398 7111 ft 252 kts 283°
2026-05-05 17:03 43.46096 7.61043 6941 ft 253 kts 283°
2026-05-05 17:03 43.46572 7.58708 6767 ft 254 kts 283°
2026-05-05 17:03 43.47044 7.56399 6599 ft 254 kts 283°
2026-05-05 17:04 43.47482 7.54043 6424 ft 253 kts 275°
2026-05-05 17:04 43.47314 7.51666 6254 ft 249 kts 256°
2026-05-05 17:04 43.46920 7.49338 6066 ft 250 kts 256°
2026-05-05 17:04 43.46528 7.47010 5891 ft 250 kts 256°
2026-05-05 17:05 43.46136 7.44678 5704 ft 250 kts 256°
2026-05-05 17:05 43.45745 7.42349 5525 ft 250 kts 256°
2026-05-05 17:05 43.45354 7.40009 5346 ft 250 kts 256°
2026-05-05 17:05 43.44963 7.37670 5170 ft 250 kts 256°
2026-05-05 17:06 43.44572 7.35333 4996 ft 251 kts 256°
2026-05-05 17:06 43.44183 7.32999 4823 ft 251 kts 256°
2026-05-05 17:06 43.43792 7.30665 4638 ft 248 kts 256°
2026-05-05 17:06 43.43406 7.28363 4450 ft 243 kts 256°
2026-05-05 17:07 43.43035 7.26150 4276 ft 238 kts 256°
2026-05-05 17:07 43.42689 7.23919 4105 ft 233 kts 263°
2026-05-05 17:07 43.42965 7.21787 3933 ft 231 kts 295°
2026-05-05 17:07 43.43843 7.19972 3801 ft 226 kts 308°
2026-05-05 17:08 43.44864 7.18362 3645 ft 219 kts 309°
2026-05-05 17:08 43.45902 7.16901 3495 ft 209 kts 323°
2026-05-05 17:08 43.47212 7.16263 3345 ft 193 kts 352°
2026-05-05 17:08 43.48499 7.16124 3193 ft 178 kts 354°
2026-05-05 17:09 43.49684 7.16011 3067 ft 163 kts 354°
2026-05-05 17:09 43.50788 7.15906 2974 ft 159 kts 354°
2026-05-05 17:09 43.51893 7.15801 2763 ft 157 kts 355°
2026-05-05 17:09 43.52971 7.15700 2591 ft 155 kts 355°
2026-05-05 17:10 43.54037 7.15608 2437 ft 153 kts 355°
2026-05-05 17:10 43.55099 7.15520 2227 ft 154 kts 355°
2026-05-05 17:10 43.56163 7.15423 1959 ft 152 kts 355°
2026-05-05 17:10 43.57209 7.15313 1742 ft 150 kts 355°
2026-05-05 17:11 43.58243 7.15200 1592 ft 149 kts 355°
2026-05-05 17:11 43.59277 7.15087 1424 ft 151 kts 355°
2026-05-05 17:11 43.60324 7.15015 1277 ft 150 kts
2026-05-05 17:11 43.61321 7.15372 1119 ft 147 kts 27°
2026-05-05 17:12 43.62134 7.16158 941 ft 139 kts 47°
2026-05-05 17:12 43.62806 7.17106 733 ft 139 kts 49°
2026-05-05 17:12 43.63488 7.18067 544 ft 140 kts 48°
2026-05-05 17:12 43.64163 7.19002 338 ft 139 kts 47°
2026-05-05 17:13 43.64840 7.19933 190 ft 138 kts 49°
2026-05-05 17:13 43.65500 7.20843 27 ft 129 kts 49°
2026-05-05 17:13 43.66010 7.21545 20 ft 73 kts 45°
2026-05-05 17:13 43.66245 7.21866 22 ft 29 kts 43°
2026-05-05 17:14 43.66369 7.21982 25 ft 21 kts 27°
2026-05-05 17:14 43.66473 7.22043 21 ft 9 kts 18°
2026-05-05 17:14 43.66511 7.22055 21 ft 3 kts
2026-05-05 17:14 43.66516 7.22054 21 ft 0 kts 356°
2026-05-05 17:15 43.66518 7.22053 21 ft 1 kts 352°
2026-05-05 17:15 43.66535 7.22044 22 ft 4 kts 331°
2026-05-05 17:15 43.66566 7.22007 21 ft 8 kts 317°
2026-05-05 17:16 43.66614 7.21945 21 ft 11 kts 315°
2026-05-05 17:16 43.66633 7.21842 23 ft 13 kts 233°
2026-05-05 17:16 43.66567 7.21751 21 ft 13 kts 225°
2026-05-05 17:16 43.66503 7.21662 21 ft 13 kts 225°
2026-05-05 17:17 43.66441 7.21576 21 ft 12 kts 225°
2026-05-05 17:17 43.66381 7.21493 21 ft 8 kts 227°
2026-05-05 17:17 43.66384 7.21467 21 ft 3 kts 333°
2026-05-05 17:17 43.66403 7.21482 21 ft 4 kts 29°
2026-05-05 17:18 43.66430 7.21470 21 ft 5 kts 314°
2026-05-05 17:18 43.66442 7.21454 21 ft 0 kts 314°
2026-05-05 17:18 43.66443 7.21453 21 ft 0 kts 314°